This is the latest recevied weather packets stored in our database for station/object EA5JPW-10. If no packets are shown the sender has not sent any weather packets the latest 10 day(s).
| Time | Temp. | Humidity | Pressure | Rain* | Wind** | Luminosity | Snow |
|---|---|---|---|---|---|---|---|
| 1777618148 | 21.11° C | 46% | 997.8 hPa | - | - | - | - |
| 1777617248 | 19.44° C | 45% | 998.3 hPa | - | - | - | - |
| 1777616348 | 18.33° C | 45% | 997.6 hPa | - | - | - | - |
| 1777615448 | 18.33° C | 46% | 997.3 hPa | - | - | - | - |
| 1777614548 | 18.33° C | 46% | 997.3 hPa | - | - | - | - |
| 1777613648 | 18.33° C | 46% | 997.1 hPa | - | - | - | - |
| 1777612747 | 18.33° C | 46% | 997 hPa | - | - | - | - |
| 1777611847 | 18.33° C | 46% | 997 hPa | - | - | - | - |
| 1777610947 | 18.33° C | 45% | 996.7 hPa | - | - | - | - |
| 1777610047 | 18.33° C | 45% | 996.6 hPa | - | - | - | - |
| 1777609147 | 18.33° C | 46% | 996.6 hPa | - | - | - | - |
| 1777608247 | 18.33° C | 45% | 996.6 hPa | - | - | - | - |
| 1777607346 | 18.33° C | 45% | 996.8 hPa | - | - | - | - |
| 1777606446 | 18.33° C | 45% | 996.8 hPa | - | - | - | - |
| 1777605546 | 18.33° C | 45% | 996.7 hPa | - | - | - | - |
| 1777604646 | 18.89° C | 45% | 996.5 hPa | - | - | - | - |
| 1777603746 | 18.89° C | 45% | 996.6 hPa | - | - | - | - |
| 1777602845 | 18.89° C | 45% | 996.7 hPa | - | - | - | - |
| 1777601945 | 18.33° C | 45% | 996.6 hPa | - | - | - | - |
| 1777601044 | 18.89° C | 45% | 996.4 hPa | - | - | - | - |
| 1777600147 | 18.89° C | 45% | 996.4 hPa | - | - | - | - |
| 1777599247 | 18.89° C | 45% | 996.3 hPa | - | - | - | - |
| 1777598347 | 18.89° C | 45% | 996.3 hPa | - | - | - | - |
| 1777597447 | 19.44° C | 45% | 996.3 hPa | - | - | - | - |
| 1777596547 | 18.89° C | 44% | 996.5 hPa | - | - | - | - |
* Rain since midnight (hover to see other rain measurements)
** Current wind speed in m/s (hover to see current wind gust speed)